DIAMOND RED (42783 NORAD) Tracking and Keplerian Element Data

This shows tracking and keplerian element data for the satellite.

Feedback or suggestion? Click here.




ElementValue
Catalog42783
NameDIAMOND RED
Epoch Orbit7696
Epoch Day315.84400295
Epoch Year2018
RAAN12.9609
Inclination97.3832
Eccentricity0.0010671
Argument of Perigee280.2414
Mean Anonmoly79.7619
Mean Motion15.21759959
Decay Rate1.096E-05
L11 42783U 17036U 18315.84400295 .00001096 00000-0 51371-4 0 9998
L22 42783 97.3832 12.9609 0010671 280.2414 79.7619 15.21759959 76961

Live tracking and technical data element details for DIAMOND RED (NORAD 42783). DIAMOND RED can be tracked NOW for your location showing map with azimuth and elevation plus other details from your city location.

Track the satellite on the map from your city or location and see movement details for azimuth, elevation, latitude, longitude, range, height, and movement on the map or in text.







IsCatalogInMostPopularTable: catalog: 42783, numindb: 212
Update: records affected: 1



GetName: 42783 DIAMOND RED

Hit Count: updated at: Mon, 12 Nov 2018 18:18:32 GMT